Waukesha, WI

2:07 PM CST on December 08, 2016 (GMT -0600)
Waukesha County

Weather History for KUES - October, 2012

Change the Weather History Date:

Tuesday, October 9, 2012

  Actual Average Record
Temperature  
Mean Temperature 48 °F -  
Max Temperature 60 °F 62 °F 83 °F (1949)
Min Temperature 37 °F 43 °F 29 °F (1964)
Degree Days  
Heating Degree Days 16    
Moisture  
Dew Point 35 °F    
Average Humidity 66    
Maximum Humidity 100    
Minimum Humidity 42    
Precipitation  
Precipitation 0.00 in - - ()
Sea Level Pressure  
Sea Level Pressure 29.86 in    
Wind  
Wind Speed 12 mph (SW)    
Max Wind Speed 26 mph    
Max Gust Speed 29 mph    
Visibility 10 miles    
Events Rain    
Averages and records for this station are not official NWS values.
T = Trace of Precipitation, MM = Missing Value Source: NWS Daily Summary

Daily Weather History Graph

Daily Weather History Graph

Search for Another Location

Airport or City:

Trip Planner

Search our weather history database for the weather conditions in past years. The results will help you decide how hot, cold, wet, or windy it might be!

Date:

Astronomy

Oct. 09, 2012 Rise Set
Actual Time 7:00 AM CDT 6:19 PM CDT
Civil Twilight 6:31 AM CDT 6:47 PM CDT
Nautical Twilight 5:58 AM CDT 7:20 PM CDT
Astronomical Twilight 5:25 AM CDT 7:53 PM CDT
Moon 12:27 AM CDT (10/9) 2:54 PM CDT (10/9)
Length of Visible Light 12h 16m
Length of Day
11h 19m
Last Quarter, 36% of the Moon is Illuminated
Oct 9
Last Quarter
Oct 15
New
Oct 21
First Quarter
Oct 29
Full
Nov 6
Last Quarter

Hourly Weather History & Observations

Time (CDT) Temp. Windchill Dew Point Humidity Pressure Visibility Wind Dir Wind Speed Gust Speed Precip Events Conditions
12:15 AM 50.0 °F - 30.2 °F 47% 29.92 in 10.0 mi SSW 13.8 mph 24.2 mph N/A   Clear
12:35 AM 50.0 °F - 30.2 °F 47% 29.92 in 10.0 mi SSW 16.1 mph 23.0 mph N/A   Clear
12:55 AM 50.0 °F - 30.2 °F 47% 29.91 in 10.0 mi SSW 16.1 mph 21.9 mph N/A   Clear
1:15 AM 50.0 °F - 32.0 °F 50% 29.92 in 10.0 mi SSW 12.7 mph 23.0 mph N/A   Clear
1:55 AM 48.2 °F - 32.0 °F 54% 29.91 in 10.0 mi SSW 13.8 mph 20.7 mph N/A   Mostly Cloudy
2:15 AM 48.2 °F - 32.0 °F 54% 29.91 in 10.0 mi SSW 11.5 mph 23.0 mph N/A   Overcast
2:55 AM 46.4 °F 42.4 °F 32.0 °F 57% 29.90 in 10.0 mi SSW 8.1 mph - N/A   Clear
3:15 AM 46.4 °F 40.7 °F 32.0 °F 57% 29.89 in 10.0 mi SSW 12.7 mph 18.4 mph N/A   Clear
3:35 AM 46.4 °F 42.4 °F 32.0 °F 57% 29.89 in 10.0 mi SSW 8.1 mph 17.3 mph N/A   Clear
3:55 AM 46.4 °F 42.9 °F 32.0 °F 57% 29.88 in 10.0 mi SSW 6.9 mph - N/A   Clear
4:15 AM 46.4 °F 41.5 °F 32.0 °F 57% 29.88 in 10.0 mi SSW 10.4 mph 16.1 mph N/A   Clear
4:35 AM 46.4 °F 41.5 °F 32.0 °F 57% 29.88 in 10.0 mi SSW 10.4 mph - N/A   Clear
4:55 AM 48.2 °F - 32.0 °F 54% 29.88 in 10.0 mi SSW 9.2 mph 16.1 mph N/A   Scattered Clouds
5:15 AM 46.4 °F 41.1 °F 32.0 °F 57% 29.88 in 10.0 mi SSW 11.5 mph 20.7 mph N/A   Mostly Cloudy
5:35 AM 46.4 °F 41.5 °F 32.0 °F 57% 29.87 in 10.0 mi South 10.4 mph 18.4 mph N/A   Mostly Cloudy
5:45 AM 48.2 °F - 33.8 °F 58% 29.87 in 10.0 mi SSW 11.5 mph 20.7 mph N/A   Mostly Cloudy
6:45 AM 48.2 °F - 33.8 °F 58% 29.88 in 10.0 mi SSW 11.5 mph 20.7 mph N/A   Overcast
7:45 AM 46.4 °F 41.1 °F 33.8 °F 62% 29.87 in 10.0 mi SSW 11.5 mph 20.7 mph N/A   Overcast
8:45 AM 48.2 °F - 35.6 °F 62% 29.86 in 10.0 mi SSW 13.8 mph - N/A   Overcast
9:45 AM 50.0 °F - 35.6 °F 58% 29.85 in 10.0 mi SSW 15.0 mph 21.9 mph N/A   Mostly Cloudy
10:45 AM 53.6 °F - 37.4 °F 54% 29.85 in 10.0 mi SW 13.8 mph 25.3 mph N/A   Mostly Cloudy
11:45 AM 55.4 °F - 37.4 °F 51% 29.82 in 10.0 mi SSW 11.5 mph 23.0 mph N/A   Mostly Cloudy
12:45 PM 57.2 °F - 37.4 °F 48% 29.81 in 10.0 mi SW 11.5 mph 23.0 mph N/A   Mostly Cloudy
1:45 PM 57.2 °F - 37.4 °F 48% 29.78 in 10.0 mi SW 11.5 mph 23.0 mph N/A   Scattered Clouds
2:48 PM 59.0 °F - 37.4 °F 45% 29.77 in 10.0 mi WSW 15.0 mph 23.0 mph N/A   Scattered Clouds
3:45 PM 60.8 °F - 37.4 °F 42% 29.78 in 10.0 mi WSW 17.3 mph 28.8 mph N/A   Mostly Cloudy
4:45 PM 57.2 °F - 37.4 °F 48% 29.78 in 10.0 mi SW 12.7 mph 24.2 mph N/A   Overcast
5:45 PM 50.0 °F - 42.8 °F 76% 29.81 in 10.0 mi WNW 19.6 mph - N/A   Overcast
6:20 PM 46.4 °F 37.7 °F 41.0 °F 81% 29.84 in 10.0 mi WNW 26.5 mph - N/A   Overcast
7:45 PM 39.2 °F 30.2 °F 37.4 °F 93% 29.86 in 10.0 mi West 17.3 mph - N/A Rain Light Rain
8:45 PM 39.2 °F 35.0 °F 37.4 °F 93% 29.86 in 10.0 mi SW 5.8 mph - N/A   Light Drizzle
9:15 PM 39.2 °F 34.2 °F 37.4 °F 93% 29.86 in 10.0 mi SW 6.9 mph - N/A   Overcast
9:35 PM 39.2 °F 35.9 °F 37.4 °F 93% 29.86 in 10.0 mi SW 4.6 mph - N/A   Drizzle
9:55 PM 39.2 °F 35.0 °F 37.4 °F 93% 29.86 in 10.0 mi SW 5.8 mph - N/A   Overcast
10:15 PM 39.2 °F 34.2 °F 37.4 °F 93% 29.86 in 10.0 mi SW 6.9 mph - N/A   Mostly Cloudy
10:35 PM 39.2 °F 34.2 °F 37.4 °F 93% 29.87 in 10.0 mi SW 6.9 mph - N/A   Scattered Clouds
10:55 PM 39.2 °F 33.6 °F 37.4 °F 93% 29.86 in 10.0 mi SW 8.1 mph - N/A   Clear
11:15 PM 39.2 °F 34.2 °F 37.4 °F 93% 29.87 in 10.0 mi WSW 6.9 mph - N/A   Clear
11:35 PM 37.4 °F 32.1 °F 37.4 °F 100% 29.87 in 10.0 mi WSW 6.9 mph - N/A   Clear
11:55 PM 37.4 °F 31.4 °F 35.6 °F 93% 29.87 in 10.0 mi West 8.1 mph - N/A   Clear